Theta_e
320 318 317 316 316 315 313 313 318 325 327 324 321 321 329 332 337 339 340 343 342 342 343 343 342 341 341 340 339 337 336 333 333 334 333 332 327 329 331 334 332 326 328
317 315 314 313 313 312 312 312 310 314 324 324 320 318 321 327 332 337 340 341 339 338 343 344 344 343 342 341 340 339 337 335 332 333 333 334 334 334 335 336 332 331 331
316 314 314 313 312 311 310 310 309 310 313 318 318 316 314 318 324 328 332 335 339 341 342 344 344 343 343 342 341 339 338 336 335 334 333 335 334 334 333 334 330 329 335
315 314 312 312 311 310 309 308 308 308 309 315 315 314 315 322 323 324 327 333 336 338 338 339 343 343 343 343 342 341 339 338 336 335 335 333 331 330 330 331 330 330 333
315 314 314 312 311 310 308 308 307 307 309 314 315 313 313 321 320 322 325 328 333 337 338 339 339 338 339 343 343 342 340 338 337 335 334 335 334 332 335 336 335 336 333
313 312 310 310 309 309 308 308 307 306 311 310 311 314 314 318 320 320 321 322 325 328 331 334 337 338 339 338 341 341 341 340 338 337 335 333 334 334 334 334 333 334 333
312 312 311 309 308 308 307 307 306 306 306 308 308 309 312 314 317 315 317 318 320 321 319 322 325 328 331 339 339 339 339 340 339 338 337 335 334 334 334 334 333 334 333
307 308 308 307 308 307 307 306 306 306 307 307 311 313 312 313 315 314 314 315 317 317 316 319 322 324 324 330 332 339 339 339 339 338 337 337 336 334 333 334 333 326 331
307 307 307 308 307 306 306 306 306 305 300 306 310 310 310 311 312 311 310 312 313 313 311 315 315 320 321 317 318 327 329 326 330 334 334 336 335 332 329 326 327 327 327
306 308 308 306 306 306 307 306 306 305 300 300 306 307 308 308 308 308 309 307 309 310 311 312 313 311 315 318 307 317 321 320 311 318 318 314 318 319 324 325 325 327 327
306 308 307 306 306 306 307 306 306 304 300 300 305 305 305 304 304 305 305 301 305 306 306 307 308 309 307 307 311 304 308 316 311 309 314 313 316 309 306 309 313 315 317
306 308 307 306 306 306 306 306 305 301 300 302 304 303 303 301 300 300 300 300 301 302 302 303 303 303 303 303 304 305 303 303 303 303 303 304 306 305 304 303 304 304 304
307 307 306 305 305 306 306 306 302 300 300 301 303 301 300 299 298 298 298 299 299 299 300 301 301 300 300 300 300 300 299 298 298 297 298 298 300 300 298 298 299 300 300
307 307 306 305 306 306 306 305 300 300 301 300 301 299 297 296 296 296 297 297 297 297 297 297 297 298 297 296 297 298 299 298 297 297 298 297 296 295 294 293 292 292 293
306 305 305 305 306 306 305 300 299 300 299 299 299 297 295 294 293 293 294 295 295 293 294 294 294 294 294 293 293 294 294 294 294 293 294 292 287 286 289 291 290 289 290
305 304 304 305 305 305 302 299 298 298 298 297 296 294 293 292 292 291 290 290 291 290 290 292 291 291 290 291 290 290 291 291 290 289 289 288 287 286 286 285 286 287 288
304 303 302 303 303 303 300 299 298 297 297 294 293 292 291 291 290 290 288 287 284 283 283 284 285 285 286 287 287 287 287 287 286 286 285 285 285 285 284 284 284 286 286
303 303 301 302 300 299 298 298 297 296 294 292 291 290 290 289 288 287 286 285 284 283 283 283 283 283 283 286 287 286 285 285 285 284 284 284 284 284 284 283 284 283 283
298 300 301 301 302 297 297 297 295 293 292 290 289 289 288 287 286 285 285 285 285 284 283 282 282 283 283 283 284 285 285 284 283 283 283 283 283 283 284 284 284 284 284
297 300 301 299 299 295 295 293 291 291 289 288 288 287 285 285 285 286 286 285 285 283 282 281 281 282 282 282 283 283 283 283 283 283 283 282 282 282 282 283 284 284 284
297 299 298 297 294 293 292 289 290 289 288 287 287 287 286 285 285 285 285 284 284 283 282 281 281 282 282 282 282 282 282 282 282 283 283 282 282 282 282 282 282 282 283
296 296 293 291 290 290 290 289 289 287 287 287 285 284 284 284 284 283 283 283 282 281 281 281 281 281 281 281 281 281 281 281 281 281 281 281 281 282 282 283 282 283 284
294 293 291 289 288 288 288 288 286 285 284 283 282 281 281 280 280 280 280 280 280 280 279 279 279 280 281 281 281 281 281 281 281 280 280 281 281 281 282 282 282 282 283
291 289 287 286 286 287 287 286 285 285 283 282 283 284 284 283 281 280 279 279 278 278 277 278 278 278 279 279 280 281 281 281 281 281 281 281 281 281 281 281 282 282 282
289 287 286 285 285 285 285 285 285 284 284 284 284 283 283 282 282 280 279 279 278 276 277 277 277 277 278 277 277 278 278 278 279 281 282 282 282 282 282 282 282 282 282
287 287 286 286 286 286 286 285 284 284 283 283 283 282 282 280 279 279 279 279 278 276 276 277 277 277 277 277 277 279 280 281 282 282 282 280 280 280 280 280 281 281 281
Wind_Speed
26 26 25 25 23 25 29 29 31 34 37 43 43 40 32 26 24 23 25 34 39 39 47 51 52 53 54 54 53 51 53 54 53 49 45 45 41 41 38 36 31 38 38
27 26 26 28 26 25 27 30 31 35 34 40 46 45 40 31 30 29 25 28 30 38 45 51 55 55 56 56 57 56 54 54 55 52 38 33 41 48 45 41 36 37 37
27 27 28 26 27 30 31 32 36 36 36 41 47 49 46 42 38 32 30 29 26 26 41 49 54 59 58 58 57 58 59 52 52 55 41 20 25 33 45 47 46 45 42
24 28 28 28 29 30 31 32 34 38 37 39 44 49 51 48 43 40 37 33 33 31 35 44 53 59 62 60 59 58 61 58 53 44 56 48 25 16 21 31 36 36 36
23 24 24 24 24 27 30 31 34 39 34 35 37 39 45 43 41 40 40 37 31 31 27 33 42 51 57 62 59 58 59 62 58 56 48 55 57 37 21 12 22 30 29
25 24 23 22 22 24 24 28 33 35 36 42 43 42 40 40 36 35 36 36 35 35 34 32 29 36 45 53 58 60 61 63 58 56 58 53 42 45 41 36 32 26 26
30 24 25 27 27 22 19 22 24 26 37 42 45 44 41 37 35 32 31 33 31 28 31 38 38 34 29 47 50 56 61 63 62 60 62 60 53 41 35 36 31 23 8
34 32 29 33 26 14 18 20 22 27 30 38 40 39 38 36 32 27 25 23 21 25 26 32 34 32 25 25 27 40 44 58 60 59 54 54 55 45 36 36 28 18 11
31 36 32 26 16 19 21 21 26 31 35 31 30 34 37 35 30 25 21 20 21 20 18 18 20 24 21 12 15 11 9 3 27 27 42 52 45 36 34 26 19 23 13
31 25 23 21 19 20 18 23 28 32 36 33 31 31 31 31 28 23 18 17 17 19 18 13 12 12 15 14 22 8 7 4 22 21 20 21 19 16 21 24 20 18 22
28 15 15 15 22 19 18 24 29 33 39 33 31 30 29 26 21 19 16 16 16 18 19 20 19 15 19 20 12 27 26 20 19 25 25 20 18 16 15 15 17 16 17
23 13 14 16 18 17 18 27 31 36 32 30 33 30 26 22 19 15 13 13 16 16 16 17 20 24 24 23 22 21 24 31 27 27 31 29 24 23 16 14 18 18 15
9 10 9 14 16 15 20 25 32 32 35 30 30 27 25 21 17 15 15 14 15 17 17 16 18 23 24 25 25 26 26 27 29 28 24 24 20 17 15 16 15 16 11
15 16 14 14 9 13 16 21 29 29 27 24 24 22 21 16 14 14 15 15 17 20 21 21 21 21 23 23 22 21 20 21 23 20 20 20 20 17 17 17 17 12 7
35 32 31 11 12 12 16 24 25 27 23 20 19 17 13 12 14 17 18 17 19 22 23 22 23 24 26 26 23 22 23 21 20 21 23 23 23 20 19 17 15 12 10
19 34 30 20 13 12 17 23 26 23 19 17 15 12 12 14 18 20 22 23 24 26 25 25 25 26 27 23 25 25 23 21 20 20 20 19 19 18 16 14 13 12 14
19 18 31 28 16 14 17 20 22 18 17 13 13 13 14 16 18 19 23 28 28 28 30 29 27 28 25 23 25 28 25 24 24 23 23 22 20 18 17 13 10 8 9
29 27 29 17 14 14 16 17 18 16 13 13 14 14 15 17 20 23 24 27 29 30 30 31 30 30 28 18 19 21 24 21 23 25 26 24 23 22 21 18 16 15 13
32 26 15 11 11 13 15 13 14 13 14 15 15 15 15 18 23 27 27 26 26 28 28 30 30 30 29 27 21 17 19 20 18 21 25 26 25 22 20 20 19 17 16
27 19 3 6 3 10 12 10 15 16 18 16 16 17 20 20 19 18 19 19 21 22 25 28 29 27 28 27 26 26 24 24 24 24 25 26 24 21 21 21 21 21 22
28 3 8 13 12 11 10 13 17 21 16 13 13 14 14 13 14 13 15 16 18 21 25 26 28 28 28 28 27 26 26 26 24 24 25 25 23 21 20 19 20 20 18
14 13 16 17 15 13 12 18 23 19 16 17 16 13 13 13 15 16 18 20 21 23 25 26 27 28 28 27 27 26 25 23 22 22 22 21 20 19 18 18 17 16 17
16 15 17 17 16 17 16 22 21 19 18 18 20 25 26 26 25 25 25 26 26 26 27 28 29 29 29 28 25 25 24 23 22 22 19 19 18 19 18 18 18 18 20
17 17 19 21 22 21 22 24 22 20 21 23 22 22 23 23 24 25 27 29 31 29 28 29 30 30 31 31 29 27 26 24 23 22 20 19 19 20 21 22 22 22 22
16 17 21 21 23 22 23 22 19 18 17 17 18 19 20 21 23 27 30 32 35 32 27 28 30 30 31 29 26 24 23 24 24 24 25 25 24 23 24 24 24 25 24
16 18 19 19 18 17 17 16 13 10 11 12 13 13 14 18 22 23 25 26 26 27 25 20 25 24 22 24 26 26 25 24 25 25 27 28 27 26 26 26 26 26 27
Wind_Direction
60 46 39 31 19 9 3 2 8 6 347 350 351 348 340 315 290 275 281 278 269 265 261 259 260 257 250 250 252 249 242 240 239 240 239 243 242 240 241 246 247 255 266
50 45 40 37 27 23 10 358 3 2 348 345 346 345 343 336 322 299 289 276 282 269 260 258 257 257 254 249 246 246 241 238 238 232 235 241 242 241 240 240 243 256 253
49 41 38 34 22 16 13 1 358 1 352 346 343 341 340 338 332 321 301 286 285 284 271 261 256 255 254 250 244 241 241 235 236 233 228 227 234 239 240 238 245 248 250
51 40 32 23 14 10 4 360 355 356 356 349 345 342 343 339 335 332 322 307 285 283 274 267 258 254 253 251 248 242 239 237 233 231 228 228 236 219 239 244 248 244 242
35 12 351 346 352 353 357 353 347 347 355 347 346 340 338 338 337 336 330 318 307 290 288 260 259 261 256 253 251 243 237 236 233 230 231 232 231 237 247 249 237 239 246
17 8 11 3 354 347 341 337 339 349 350 339 338 342 342 336 336 342 338 333 328 320 306 281 279 263 257 256 255 254 247 242 234 232 231 231 232 234 240 247 251 265 266
359 350 341 346 343 344 353 355 355 343 335 332 331 331 334 333 329 336 341 340 340 348 346 344 320 298 288 252 253 253 251 244 239 233 234 235 234 236 235 237 240 246 240
351 344 345 340 330 4 12 13 9 349 338 337 342 340 338 333 329 327 334 338 342 341 338 334 331 308 300 279 268 235 245 242 239 236 230 234 235 230 235 238 209 209 201
6 353 345 341 40 22 18 11 359 351 348 340 337 341 335 329 326 324 334 343 344 345 350 349 346 323 304 23 345 254 225 173 221 200 225 225 219 204 207 216 229 218 161
353 357 6 14 23 18 5 2 354 347 347 341 341 343 338 327 326 325 334 349 356 352 354 11 30 29 8 349 48 39 296 133 62 130 133 110 132 154 182 198 194 177 177
342 352 355 9 8 3 356 356 345 350 350 347 353 347 339 332 332 339 357 24 12 13 16 7 0 21 57 66 55 50 83 111 93 91 100 112 87 87 93 114 135 147 158
326 344 354 351 17 2 4 356 353 354 359 358 356 350 342 342 348 2 20 30 45 40 41 41 43 39 37 47 65 73 52 73 80 67 81 91 109 91 92 92 105 116 111
338 2 15 11 8 15 357 350 350 353 358 2 356 349 348 350 2 19 34 39 50 62 59 55 52 56 60 54 47 50 55 56 61 62 65 66 77 75 59 56 62 75 94
352 356 0 354 8 356 348 353 344 353 3 3 354 350 353 4 23 36 46 53 58 62 64 62 65 65 62 61 67 68 65 58 55 52 51 49 47 39 31 32 41 44 57
5 1 330 12 39 7 3 354 359 357 4 1 358 359 7 24 36 42 46 51 60 60 60 59 58 59 55 54 60 65 68 63 53 44 44 41 40 36 26 20 13 9 10
351 344 9 13 19 1 359 360 359 1 5 8 23 27 27 32 39 41 46 49 51 53 52 53 53 56 54 50 48 53 53 53 48 39 28 26 29 22 18 30 50 19 17
305 300 340 352 334 354 0 1 3 11 16 32 44 40 35 37 41 47 53 53 57 59 58 58 58 57 52 62 61 58 46 42 42 42 36 34 31 27 26 30 35 10 358
321 303 305 334 341 343 8 13 23 23 37 49 51 43 40 45 47 51 56 56 54 55 55 57 56 59 61 67 72 69 58 45 38 37 33 30 29 30 26 23 28 26 18
314 313 301 303 303 347 15 28 47 50 55 54 50 47 47 52 54 56 55 56 51 46 48 51 52 53 55 57 59 54 59 54 44 36 35 32 29 26 23 22 25 28 30
312 320 349 161 49 35 33 64 69 62 58 54 56 57 60 59 55 53 57 57 52 51 50 51 48 48 46 45 46 46 47 46 42 40 36 32 28 24 21 21 18 19 16
319 121 98 71 75 70 76 81 69 63 65 64 58 56 57 62 62 64 63 57 53 53 53 51 48 47 44 41 38 37 38 37 35 33 30 24 20 20 20 19 18 12 6
81 75 75 82 82 78 79 75 67 68 66 61 58 54 49 49 45 54 59 56 55 55 52 48 46 45 42 40 37 35 35 34 30 26 24 13 14 17 16 15 12 8 5
68 76 91 93 84 82 75 72 72 67 64 64 67 68 68 68 65 63 61 58 51 49 45 42 41 40 37 37 35 33 31 29 28 22 15 11 13 15 18 17 14 9 7
72 83 87 84 83 78 72 73 75 74 74 74 67 58 53 52 53 55 54 53 47 42 40 39 37 34 31 28 27 26 25 25 23 18 14 12 13 16 17 17 15 13 7
84 89 89 86 84 80 77 71 66 76 75 69 61 56 53 50 48 46 46 44 38 31 35 41 34 31 26 21 18 18 18 15 17 14 15 12 10 9 9 11 11 8 4
97 94 91 87 82 77 78 82 89 85 86 81 72 66 62 59 54 52 49 48 34 25 33 41 45 30 27 21 23 28 23 21 14 13 13 11 9 7 5 3 1 1 358